Hourly Data Report for November 09, 2017

SHEARWATER RCS
NOVA SCOTIA

44°37'47.000" N
63°30'48.000" W
24.00 m
8205092
71264
AAW

Download Data

Hourly Data (November 2017)
Hourly Data Report for November 9, 2017
TIME
LST
Temp Definition
°C
Dew Point Definition
°C
Rel Hum Definition
%
Precip. Amount Definition
mm

Wind Dir Definition
10's deg

Wind Spd Definition
km/h
Visibility Definition
km
Stn Press Definition
kPa
Hmdx Definition


Wind Chill Definition


Weather Definition


00:00 2.7 1.4 91 0.0 34 14   101.93     LegendNANA
01:00 2.8 1.4 90 0.0 34 12   101.91     LegendNANA
02:00 2.9 1.6 91 0.0 33 13   101.93     LegendNANA
03:00 3.0 1.7 91 0.0 34 12   101.96     LegendNANA
04:00 3.0 1.5 90 0.0 34 11   101.94     LegendNANA
05:00 2.8 1.0 88 0.0 34 12   101.99     LegendNANA
06:00 2.6 0.6 87 0.0 34 8   102.02     LegendNANA
07:00 2.3 0.2 86 0.0 34 7   102.06     LegendNANA
08:00 3.2 0.1 80 0.0 35 10   102.11     LegendNANA
09:00 4.7 -0.7 68 0.0 1 14   102.12     LegendNANA
10:00 5.7 -0.5 64 0.0 3 17   102.09     LegendNANA
11:00 6.5 -1.2 58 0.0 2 13   102.10     LegendNANA
12:00 7.6 -0.9 55 0.0 2 11   102.01     LegendNANA
13:00 8.2 0.0 56 0.0 22 8   101.94     LegendNANA
14:00 8.2 -0.7 53 0.0 24 9   101.91     LegendNANA
15:00 6.9 0.2 62 0.0 28 9   101.91     LegendNANA
16:00 6.9 0.5 64 0.0 26 8   101.95     LegendNANA
17:00 6.5 0.4 65 0.0 21 9   101.93     LegendNANA
18:00 6.1 0.4 66 0.0 21 4   101.94     LegendNANA
19:00 4.8 0.1 71 0.0 9 7   101.88     LegendNANA
20:00 5.3 0.6 72 0.0 8 6   101.85     LegendNANA
21:00 6.0 1.6 73 0.0 7 6   101.82     LegendNANA
22:00 6.7 2.9 76 0.0 6 8   101.73     LegendNANA
23:00 8.3 4.1 75 0.0 14 16   101.63     LegendNANA

Notes on Data Quality.

Legend

  • E = Estimated
  • M = Missing
  • NA = Not Available*
  • [empty] = Indicates an unobserved value
Date modified: